STARLINK-2233 (48579 NORAD) Tracking and Keplerian Element Data

This shows tracking and keplerian element data for the satellite.

Feedback or suggestion? Click here.




ElementValue
Catalog48579
NameSTARLINK-2233
Epoch Orbit1250
Epoch Day215.1435951
Epoch Year2021
RAAN111.3811
Inclination53.0563
Eccentricity0.0001741
Argument of Perigee88.7909
Mean Anonmoly271.3279
Mean Motion15.06392772
Decay Rate-1.123E-05
L11 48579U 21041AC 21215.14359510 -.00001123 00000-0 -56496-4 0 9993
L22 48579 53.0563 111.3811 0001741 88.7909 271.3279 15.06392772 12508

Live tracking and technical data element details for STARLINK-2233 (NORAD 48579). STARLINK-2233 can be tracked NOW for your location showing map with azimuth and elevation plus other details from your city location.

Track the satellite on the map from your city or location and see movement details for azimuth, elevation, latitude, longitude, range, height, and movement on the map or in text.







IsCatalogInMostPopularTable: catalog: 48579, numindb: 22
Update: records affected: 1



GetName: 48579 STARLINK-2233

Hit Count: updated at: Tue, 03 Aug 2021 23:42:59 GMT